Flag for U.S.A. Weather past 2 weeks in Berkeley, California, U.S.A.

Now
55 °F

Partly sunny.


Feels Like: 51 °F
Forecast: 51 / 67 °F
Wind: 16 mph from West

Location: Metro Oakland International Airport

Current Time: Apr 21, 2015 at 9:24:01 PM

Latest Report: Apr 21, 2015 at 7:53 PM


Visibility: 10 mi

Pressure: 29.85 "Hg

Humidity: 77%

Dew point: 48 °F

Location of BerkeleyLocation

Historic Weather in Berkeley — Graph

°F

Berkeley temperature yesterday

Maximum temperature yesterday: 63 °F (at 2:53 PM)
Minimum temperature yesterday: 53 °F (at 5:53 AM)
Average temperature yesterday: 57 °F

Past Weeks' High & Low Weather Summary

 TemperatureHumidityPressure
High81 °F (Apr 16, 2:53 PM)97% (Apr 12, 7:53 AM)30.34 "Hg (Apr 12, 7:53 AM)
Low43 °F (Apr 9, 6:53 AM)12% (Apr 16, 2:53 PM)29.77 "Hg (Apr 7, 6:03 AM)
Average57 °F66%30.03 "Hg
* Reported Apr 6 6:53 PM — Apr 21 6:53 PM, Berkeley, Weather by CustomWeather, © 2015

Note: Actual official high and low records may vary slightly from our data, if they occured in-between our weather recording intervals... More about our weather records

Advertising

Berkeley weather history for previous 24 hours

 ConditionsComfort  
Time TempWeatherWind HumidityBarometerVisibility
6:53 PM
Tue, Apr 21
56 °FPartly sunny.16 mph75%29.86 "Hg10 mi
5:53 PM57 °FPartly sunny.16 mph72%29.86 "Hg10 mi
4:53 PM59 °FBroken clouds.20 mph67%29.87 "Hg10 mi
3:53 PM60 °FBroken clouds.17 mph67%29.87 "Hg10 mi
2:53 PM60 °FPassing clouds.20 mph67%29.89 "Hg10 mi
1:53 PM58 °FBroken clouds.15 mph70%29.90 "Hg10 mi
12:53 PM56 °FMore clouds than sun.14 mph75%29.92 "Hg10 mi
11:53 AM56 °FMore clouds than sun.16 mph75%29.92 "Hg10 mi
10:53 AM56 °FMore clouds than sun.14 mph75%29.92 "Hg10 mi
9:53 AM55 °FOvercast.12 mph80%29.91 "Hg10 mi
8:53 AM54 °FOvercast.14 mph80%29.90 "Hg10 mi
7:53 AM54 °FDrizzle. Overcast.10 mph80%29.89 "Hg10 mi
6:53 AM53 °FOvercast.10 mph83%29.88 "Hg10 mi
5:53 AM53 °FOvercast.10 mph83%29.87 "Hg10 mi
4:53 AM53 °FOvercast.14 mph83%29.86 "Hg10 mi
3:53 AM54 °FOvercast.14 mph83%29.86 "Hg10 mi
2:53 AM54 °FOvercast.12 mph83%29.86 "Hg10 mi
1:53 AM55 °FOvercast.14 mph80%29.87 "Hg10 mi
12:53 AM55 °FOvercast.13 mph80%29.87 "Hg10 mi
11:53 PM
Mon, Apr 20
55 °FPassing clouds.12 mph80%29.87 "Hg10 mi
10:53 PM55 °FPassing clouds.12 mph80%29.87 "Hg10 mi
9:53 PM55 °FPassing clouds.12 mph77%29.87 "Hg10 mi
Weather by CustomWeather, © 2015

See weather overviewHow to use our weather pages